Tiempo cada hora Alins

Hoy, 28 Julio, Miércoles

Tiempo Temperatura Precipitaciones Viento Presión Humedad
00:00 +15°C° 0.1 mm 1 mps 642 mmHg 76%
01:00 +15°C° 0.1 mm 1 mps 642 mmHg 78%
02:00 +14°C° 0.1 mm 1 mps 641 mmHg 80%
03:00 +14°C° 0.1 mm 1 mps 641 mmHg 81%
04:00 +14°C° 0 mm 1 mps 641 mmHg 80%
05:00 +15°C° 0 mm 1 mps 641 mmHg 78%
06:00 +15°C° 0 mm 1 mps 641 mmHg 77%
07:00 +18°C° 0 mm 1 mps 642 mmHg 69%
08:00 +19°C° 0 mm 2 mps 643 mmHg 62%
09:00 +21°C° 0 mm 2 mps 643 mmHg 54%
10:00 +23°C° 0 mm 2 mps 644 mmHg 51%
11:00 +24°C° 0 mm 3 mps 644 mmHg 48%
12:00 +25°C° 0 mm 3 mps 644 mmHg 45%
13:00 +25°C° 0.1 mm 3 mps 644 mmHg 44%
14:00 +25°C° 0.1 mm 3 mps 644 mmHg 44%
15:00 +25°C° 0.1 mm 3 mps 644 mmHg 43%
16:00 +25°C° 0 mm 3 mps 644 mmHg 46%
17:00 +24°C° 0 mm 2 mps 644 mmHg 48%
18:00 +24°C° 0 mm 2 mps 643 mmHg 51%
19:00 +21°C° 0 mm 2 mps 643 mmHg 59%
20:00 +20°C° 0 mm 1 mps 643 mmHg 67%
21:00 +16°C° 0 mm 0 mps 643 mmHg 75%
22:00 +16°C° 0 mm 1 mps 643 mmHg 77%
23:00 +16°C° 0 mm 1 mps 643 mmHg 78%

Mañana, 29 Julio, Jueves

Tiempo Temperatura Precipitaciones Viento Presión Humedad
00:00 +16°C° 0 mm 1 mps 643 mmHg 80%
01:00 +16°C° 0 mm 1 mps 643 mmHg 80%
02:00 +16°C° 0 mm 1 mps 642 mmHg 80%
03:00 +15°C° 0 mm 1 mps 642 mmHg 80%
04:00 +16°C° 0 mm 1 mps 642 mmHg 78%
05:00 +16°C° 0 mm 1 mps 642 mmHg 75%
06:00 +18°C° 0 mm 1 mps 643 mmHg 73%
07:00 +20°C° 0 mm 1 mps 643 mmHg 64%
08:00 +21°C° 0 mm 2 mps 644 mmHg 55%
09:00 +25°C° 0 mm 2 mps 644 mmHg 46%
10:00 +26°C° 0 mm 2 mps 644 mmHg 42%
11:00 +27°C° 0 mm 3 mps 645 mmHg 38%
12:00 +28°C° 0 mm 3 mps 645 mmHg 35%
13:00 +28°C° 0 mm 3 mps 644 mmHg 33%
14:00 +28°C° 0 mm 3 mps 644 mmHg 32%
15:00 +29°C° 0 mm 3 mps 644 mmHg 30%
16:00 +28°C° 0 mm 3 mps 643 mmHg 35%
17:00 +27°C° 0 mm 2 mps 643 mmHg 39%
18:00 +26°C° 0 mm 2 mps 643 mmHg 43%
19:00 +24°C° 0 mm 2 mps 642 mmHg 51%
20:00 +20°C° 0 mm 2 mps 642 mmHg 59%
21:00 +19°C° 0 mm 1 mps 642 mmHg 67%
22:00 +18°C° 0 mm 1 mps 642 mmHg 67%
23:00 +18°C° 0 mm 1 mps 641 mmHg 66%

Pasado mañana, 30 Julio, Viernes

Tiempo Temperatura Precipitaciones Viento Presión Humedad
00:00 +18°C° 0 mm 1 mps 641 mmHg 66%
01:00 +18°C° 0 mm 1 mps 641 mmHg 67%
02:00 +16°C° 0 mm 1 mps 641 mmHg 68%
03:00 +16°C° 0 mm 1 mps 641 mmHg 69%
04:00 +16°C° 0 mm 1 mps 641 mmHg 68%
05:00 +18°C° 0 mm 1 mps 641 mmHg 67%
06:00 +18°C° 0 mm 1 mps 641 mmHg 67%
07:00 +20°C° 0 mm 1 mps 642 mmHg 59%
08:00 +21°C° 0 mm 2 mps 642 mmHg 52%
09:00 +24°C° 0 mm 2 mps 643 mmHg 44%
10:00 +25°C° 0 mm 2 mps 643 mmHg 41%
11:00 +26°C° 0 mm 3 mps 643 mmHg 37%
12:00 +27°C° 0 mm 3 mps 643 mmHg 34%
13:00 +27°C° 0 mm 3 mps 643 mmHg 34%
14:00 +28°C° 0 mm 3 mps 643 mmHg 34%
15:00 +28°C° 0 mm 4 mps 642 mmHg 34%
16:00 +27°C° 0.1 mm 3 mps 642 mmHg 37%
17:00 +26°C° 0.1 mm 3 mps 642 mmHg 40%
18:00 +25°C° 0.1 mm 2 mps 642 mmHg 44%
19:00 +21°C° 0 mm 3 mps 642 mmHg 53%
20:00 +18°C° 0 mm 3 mps 641 mmHg 62%
21:00 +16°C° 0 mm 3 mps 641 mmHg 71%
22:00 +16°C° 0 mm 2 mps 641 mmHg 71%
23:00 +15°C° 0 mm 2 mps 641 mmHg 71%

31 Julio, Sábado

Tiempo Temperatura Precipitaciones Viento Presión Humedad
00:00 +15°C° 0 mm 2 mps 641 mmHg 71%
01:00 +14°C° 0.2 mm 2 mps 640 mmHg 75%
02:00 +14°C° 0.2 mm 1 mps 640 mmHg 79%
03:00 +13°C° 0.2 mm 1 mps 640 mmHg 83%
04:00 +13°C° 0.3 mm 1 mps 640 mmHg 84%
05:00 +14°C° 0.3 mm 1 mps 640 mmHg 85%
06:00 +13°C° 0.3 mm 0 mps 640 mmHg 85%
07:00 +15°C° 0.1 mm 1 mps 640 mmHg 83%
08:00 +16°C° 0.1 mm 1 mps 641 mmHg 81%
09:00 +17°C° 0.1 mm 2 mps 641 mmHg 79%
10:00 +18°C° 0.1 mm 2 mps 641 mmHg 72%
11:00 +19°C° 0.1 mm 2 mps 641 mmHg 64%
12:00 +21°C° 0.1 mm 3 mps 641 mmHg 56%
13:00 +21°C° 0.1 mm 3 mps 641 mmHg 52%
14:00 +22°C° 0.1 mm 3 mps 641 mmHg 48%
15:00 +22°C° 0.1 mm 3 mps 641 mmHg 44%
16:00 +21°C° 0.2 mm 3 mps 641 mmHg 49%
17:00 +20°C° 0.2 mm 3 mps 640 mmHg 54%
18:00 +19°C° 0.2 mm 3 mps 640 mmHg 59%
19:00 +16°C° 0.9 mm 3 mps 640 mmHg 68%
20:00 +13°C° 0.9 mm 3 mps 640 mmHg 78%
21:00 +11°C° 0.9 mm 3 mps 640 mmHg 88%
22:00 +10°C° 0.1 mm 3 mps 640 mmHg 88%
23:00 +10°C° 0.1 mm 3 mps 639 mmHg 88%

1 Agosto, Domingo

Tiempo Temperatura Precipitaciones Viento Presión Humedad
00:00 +9°C° 0.1 mm 2 mps 639 mmHg 88%
01:00 +9°C° 0 mm 2 mps 639 mmHg 88%
02:00 +9°C° 0 mm 2 mps 639 mmHg 88%
03:00 +8°C° 0 mm 2 mps 639 mmHg 89%
04:00 +9°C° 0 mm 2 mps 639 mmHg 87%
05:00 +9°C° 0 mm 2 mps 639 mmHg 86%
06:00 +9°C° 0 mm 2 mps 639 mmHg 85%
07:00 +12°C° 0 mm 2 mps 640 mmHg 76%
08:00 +14°C° 0 mm 1 mps 640 mmHg 67%
09:00 +16°C° 0 mm 1 mps 641 mmHg 58%
10:00 +18°C° 0 mm 2 mps 641 mmHg 52%
11:00 +19°C° 0 mm 2 mps 642 mmHg 45%
12:00 +21°C° 0 mm 3 mps 642 mmHg 38%
13:00 +21°C° 0 mm 3 mps 642 mmHg 35%
14:00 +22°C° 0 mm 3 mps 642 mmHg 32%
15:00 +22°C° 0 mm 4 mps 642 mmHg 29%
16:00 +21°C° 0 mm 3 mps 642 mmHg 32%
17:00 +20°C° 0 mm 2 mps 641 mmHg 36%
18:00 +20°C° 0 mm 1 mps 641 mmHg 40%
19:00 +17°C° 0 mm 2 mps 641 mmHg 49%
20:00 +15°C° 0 mm 2 mps 641 mmHg 58%
21:00 +12°C° 0 mm 2 mps 641 mmHg 67%
22:00 +12°C° 0 mm 2 mps 640 mmHg 64%
23:00 +12°C° 0 mm 2 mps 640 mmHg 62%

2 Agosto, Lunes

Tiempo Temperatura Precipitaciones Viento Presión Humedad
00:00 +12°C° 0 mm 1 mps 640 mmHg 59%
01:00 +11°C° 0 mm 1 mps 640 mmHg 61%
02:00 +10°C° 0 mm 2 mps 640 mmHg 63%
03:00 +10°C° 0 mm 2 mps 640 mmHg 66%
04:00 +12°C° 0.1 mm 1 mps 640 mmHg 69%
05:00 +12°C° 0.1 mm 1 mps 640 mmHg 72%
06:00 +13°C° 0.1 mm 1 mps 640 mmHg 76%
07:00 +14°C° 0.6 mm 1 mps 641 mmHg 74%
08:00 +15°C° 0.6 mm 2 mps 641 mmHg 73%
09:00 +17°C° 0.6 mm 2 mps 641 mmHg 71%
10:00 +17°C° 1.1 mm 2 mps 641 mmHg 72%
11:00 +18°C° 1.1 mm 2 mps 642 mmHg 73%
12:00 +18°C° 1.1 mm 2 mps 642 mmHg 73%
13:00 +18°C° 1.4 mm 2 mps 642 mmHg 75%
14:00 +18°C° 1.4 mm 2 mps 641 mmHg 76%
15:00 +18°C° 1.4 mm 2 mps 641 mmHg 77%
16:00 +17°C° 0.6 mm 2 mps 641 mmHg 80%
17:00 +17°C° 0.6 mm 2 mps 641 mmHg 82%
18:00 +16°C° 0.6 mm 2 mps 640 mmHg 85%
19:00 +15°C° 0.7 mm 2 mps 640 mmHg 87%
20:00 +14°C° 0.7 mm 2 mps 640 mmHg 90%
21:00 +13°C° 0.7 mm 2 mps 640 mmHg 92%
22:00 +13°C° 0.1 mm 2 mps 640 mmHg 90%
23:00 +13°C° 0.1 mm 1 mps 640 mmHg 88%
Mostrar más

Necesitamos Su Consentimiento

Meteoprog y nuestros Proveedores de Servicios pueden almacenar y acceder a sus datos personales como cookies, identificadores de dispositivo u otras tecnologías similares de su dispositivo y procesar dichos datos para personalizar contenido y anuncios, además de ofrecer funciones de redes sociales y analizar el tráfico.

  • Almacenar y/o acceder a información en su dispositivo

    Se puede almacenar o acceder a cookies, identificadores de dispositivo u otra información de su dispositivo para los fines anteriormente indicados.

  • Anuncios y contenido personalizados, medición de anuncios y contenido, percepciones del público, y desarrollo de productos

    Los anuncios y el contenido pueden personalizarse en base a su perfil. Se pueden añadir más datos para personalizar mejor los anuncios y contenidos. Se puede medir el rendimiento de los anuncios y contenidos. Se puede obtener la percepción sobre el público que ha visto los anuncios y contenidos. Dichos datos pueden usarse para desarrollar o mejorar la experiencia del usuario, sistemas y software.

Al hacer clic en ‘Estoy De Acuerdo’ usted permitirá el uso de las cookies, identificadores de dispositivo, balizas web u otras tecnologías similares indicadas. Su configuración puede cambiarse desde el navegador de su dispositivo.

Para ciertos fines, los intereses legítimos pueden ser considerados por encima del consentimiento. Puede leer más sobre ello en nuestra Política de Privacidad y Cookies.